Casa Grande, AZ

11:06 PM MST on February 22, 2017 (GMT -0700)
Casa Grande Municipal

Weather History for KCGZ - September, 2013

Change the Weather History Date:

Thursday, September 26, 2013

  Actual Average Record
Temperature  
Mean Temperature 78 °F -  
Max Temperature 93 °F 93 °F 102 °F (2005)
Min Temperature 62 °F 65 °F 59 °F (2007)
Cooling Degree Days 12    
Growing Degree Days 28 (Base 50)    
Moisture  
Dew Point 34 °F    
Average Humidity 20    
Maximum Humidity 27    
Minimum Humidity 15    
Precipitation  
Precipitation 0.00 in - - ()
Sea Level Pressure  
Sea Level Pressure 29.70 in    
Wind  
Wind Speed 10 mph (SSW)    
Max Wind Speed 28 mph    
Max Gust Speed 37 mph    
Visibility 9 miles    
Events      
Averages and records for this station are not official NWS values.
T = Trace of Precipitation, MM = Missing Value Source: NWS Daily Summary

Daily Weather History Graph

Daily Weather History Graph

Search for Another Location

Airport or City:

Trip Planner

Search our weather history database for the weather conditions in past years. The results will help you decide how hot, cold, wet, or windy it might be!

Date:

Astronomy

Sep. 26, 2013 Rise Set
Actual Time 6:18 AM MST 6:17 PM MST
Civil Twilight 5:53 AM MST 6:42 PM MST
Nautical Twilight 5:24 AM MST 7:11 PM MST
Astronomical Twilight 4:55 AM MST 7:40 PM MST
Moon 11:34 PM MST (9/26) 12:57 PM MST (9/26)
Length of Visible Light 12h 49m
Length of Day
11h 59m
Waning Gibbous, 53% of the Moon is Illuminated
Sep 26
Waning Gibbous
Sep 26
Last Quarter
Oct 4
New
Oct 11
First Quarter
Oct 18
Full

Hourly Weather History & Observations

Time (MST) Temp. Dew Point Humidity Pressure Visibility Wind Dir Wind Speed Gust Speed Precip Events Conditions
12:15 AM 75.2 °F 35.6 °F 24% 29.71 in 10.0 mi SE 5.8 mph - N/A   Clear
12:35 AM 75.2 °F 35.6 °F 24% 29.71 in 10.0 mi ESE 6.9 mph - N/A   Clear
12:55 AM 73.4 °F 33.8 °F 23% 29.71 in 10.0 mi ESE 8.1 mph - N/A   Clear
1:15 AM 73.4 °F 33.8 °F 23% 29.71 in 10.0 mi ESE 9.2 mph - N/A   Clear
1:35 AM 73.4 °F 32.0 °F 22% 29.71 in 10.0 mi ESE 8.1 mph - N/A   Clear
1:55 AM 71.6 °F 32.0 °F 23% 29.71 in 10.0 mi SE 3.5 mph - N/A   Clear
2:15 AM 71.6 °F 30.2 °F 22% 29.71 in 10.0 mi SE 4.6 mph - N/A   Clear
2:35 AM 69.8 °F 30.2 °F 23% 29.70 in 10.0 mi Calm Calm - N/A   Clear
2:55 AM 69.8 °F 30.2 °F 23% 29.70 in 10.0 mi Calm Calm - N/A   Clear
3:15 AM 69.8 °F 28.4 °F 21% 29.69 in 10.0 mi ESE 8.1 mph - N/A   Clear
3:35 AM 69.8 °F 28.4 °F 21% 29.69 in 10.0 mi East 8.1 mph - N/A   Clear
3:55 AM 68.0 °F 28.4 °F 23% 29.69 in 10.0 mi East 4.6 mph - N/A   Clear
4:15 AM 66.2 °F 28.4 °F 24% 29.70 in 10.0 mi ENE 3.5 mph - N/A   Clear
4:35 AM 64.4 °F 28.4 °F 26% 29.70 in 10.0 mi ENE 3.5 mph - N/A   Clear
4:55 AM 68.0 °F 26.6 °F 21% 29.70 in 10.0 mi ESE 4.6 mph - N/A   Clear
5:15 AM 68.0 °F 26.6 °F 21% 29.70 in 10.0 mi ESE 6.9 mph - N/A   Clear
5:35 AM 66.2 °F 26.6 °F 23% 29.71 in 10.0 mi Calm Calm - N/A   Clear
5:55 AM 66.2 °F 28.4 °F 24% 29.71 in 10.0 mi ENE 3.5 mph - N/A   Clear
6:15 AM 64.4 °F 28.4 °F 26% 29.71 in 10.0 mi ENE 4.6 mph - N/A   Clear
6:35 AM 62.6 °F 28.4 °F 27% 29.71 in 10.0 mi ENE 3.5 mph - N/A   Clear
6:55 AM 64.4 °F 28.4 °F 26% 29.71 in 10.0 mi East 3.5 mph - N/A   Clear
7:15 AM 66.2 °F 30.2 °F 26% 29.72 in 10.0 mi NNE 4.6 mph - N/A   Clear
7:35 AM 69.8 °F 30.2 °F 23% 29.73 in 10.0 mi NE 3.5 mph - N/A   Clear
7:55 AM 71.6 °F 30.2 °F 22% 29.73 in 10.0 mi East 5.8 mph - N/A   Clear
8:15 AM 73.4 °F 30.2 °F 20% 29.73 in 10.0 mi East 4.6 mph - N/A   Clear
8:35 AM 75.2 °F 32.0 °F 21% 29.73 in 10.0 mi SE 5.8 mph - N/A   Clear
8:55 AM 78.8 °F 32.0 °F 18% 29.74 in 10.0 mi SSE 3.5 mph - N/A   Clear
9:15 AM 80.6 °F 33.8 °F 18% 29.74 in 10.0 mi South 12.7 mph 16.1 mph N/A   Clear
9:35 AM 82.4 °F 35.6 °F 19% 29.74 in 10.0 mi South 8.1 mph - N/A   Clear
9:55 AM 84.2 °F 37.4 °F 19% 29.74 in 10.0 mi South 15.0 mph - N/A   Clear
10:15 AM 84.2 °F 37.4 °F 19% 29.73 in 10.0 mi SSW 12.7 mph - N/A   Clear
10:35 AM 87.8 °F 35.6 °F 16% 29.72 in 10.0 mi SSW 12.7 mph 20.7 mph N/A   Clear
10:55 AM 87.8 °F 37.4 °F 17% 29.72 in 10.0 mi South 13.8 mph 24.2 mph N/A   Clear
11:15 AM 89.6 °F 37.4 °F 16% 29.71 in 10.0 mi SSW 15.0 mph 20.7 mph N/A   Clear
11:35 AM 91.4 °F 37.4 °F 15% 29.70 in 10.0 mi SSW 20.7 mph 25.3 mph N/A   Clear
11:55 AM 91.4 °F 39.2 °F 16% 29.70 in 10.0 mi SSW 15.0 mph 21.9 mph N/A   Clear
12:15 PM 93.2 °F 39.2 °F 15% 29.68 in 5.0 mi SSW 25.3 mph 33.4 mph N/A   Clear
12:35 PM 93.2 °F 39.2 °F 15% 29.68 in 2.0 mi SSW 20.7 mph 32.2 mph N/A   Clear
12:55 PM 93.2 °F 39.2 °F 15% 29.67 in 5.0 mi SSW 24.2 mph 29.9 mph N/A   Clear
1:15 PM 93.2 °F 39.2 °F 15% 29.67 in 1.2 mi SSW 23.0 mph 36.8 mph N/A   Clear
1:35 PM - - N/A% 29.66 in 5.0 mi SW 23.0 mph 35.7 mph N/A   Clear
1:55 PM 93.2 °F 41.0 °F 16% 29.66 in 9.0 mi SW 26.5 mph 33.4 mph N/A   Clear
2:15 PM 93.2 °F 41.0 °F 16% 29.65 in 5.0 mi SW 26.5 mph 33.4 mph N/A   Clear
2:35 PM 93.2 °F 41.0 °F 16% 29.65 in 10.0 mi SW 25.3 mph 32.2 mph N/A   Clear
2:55 PM 93.2 °F 42.8 °F 17% 29.65 in 10.0 mi SSW 27.6 mph 36.8 mph N/A   Clear
3:15 PM 93.2 °F 44.6 °F 19% 29.65 in 7.0 mi SSW 19.6 mph 33.4 mph N/A   Clear
3:35 PM 93.2 °F 44.6 °F 19% 29.65 in 10.0 mi SSW 23.0 mph 32.2 mph N/A   Clear
3:55 PM 93.2 °F 44.6 °F 19% 29.65 in 10.0 mi SSW 25.3 mph 35.7 mph N/A   Clear
4:15 PM 93.2 °F 44.6 °F 19% 29.65 in 10.0 mi SSW 19.6 mph 31.1 mph N/A   Clear
4:35 PM 91.4 °F 46.4 °F 21% 29.64 in 10.0 mi SSW 25.3 mph 32.2 mph N/A   Partly Cloudy
4:55 PM 91.4 °F 44.6 °F 20% 29.64 in 10.0 mi SSW 23.0 mph 27.6 mph N/A   Partly Cloudy
5:15 PM 91.4 °F 44.6 °F 20% 29.64 in 10.0 mi SSW 21.9 mph 27.6 mph N/A   Clear
5:35 PM 89.6 °F 44.6 °F 21% 29.64 in 10.0 mi SW 18.4 mph 26.5 mph N/A   Clear
5:55 PM 89.6 °F 44.6 °F 21% 29.64 in 10.0 mi WSW 19.6 mph 25.3 mph N/A   Partly Cloudy
6:15 PM 87.8 °F 44.6 °F 22% 29.65 in 10.0 mi SW 18.4 mph 25.3 mph N/A   Scattered Clouds
6:35 PM 87.8 °F 44.6 °F 22% 29.65 in 10.0 mi West 16.1 mph 23.0 mph N/A   Clear
6:55 PM 84.2 °F 41.0 °F 22% 29.66 in 10.0 mi West 13.8 mph - N/A   Clear
7:15 PM 82.4 °F 37.4 °F 20% 29.66 in 10.0 mi West 18.4 mph 24.2 mph N/A   Clear
7:35 PM 82.4 °F 33.8 °F 17% 29.67 in 10.0 mi West 19.6 mph 25.3 mph N/A   Clear
7:55 PM 80.6 °F 28.4 °F 15% 29.69 in 10.0 mi West 18.4 mph 27.6 mph N/A   Clear
8:15 PM 80.6 °F 28.4 °F 15% 29.70 in 10.0 mi West 20.7 mph 27.6 mph N/A   Clear
8:35 PM 78.8 °F 26.6 °F 15% 29.71 in 10.0 mi West 18.4 mph 23.0 mph N/A   Partly Cloudy
8:55 PM 78.8 °F 26.6 °F 15% 29.72 in 10.0 mi West 16.1 mph 20.7 mph N/A   Partly Cloudy
9:15 PM 78.8 °F 28.4 °F 16% 29.72 in 10.0 mi WSW 10.4 mph 18.4 mph N/A   Clear
9:35 PM 77.0 °F 28.4 °F 17% 29.74 in 10.0 mi WSW 9.2 mph - N/A   Clear
9:55 PM 75.2 °F 28.4 °F 18% 29.74 in 10.0 mi West 8.1 mph - N/A   Clear
10:15 PM 75.2 °F 30.2 °F 19% 29.75 in 10.0 mi West 11.5 mph - N/A   Clear
10:35 PM 73.4 °F 30.2 °F 20% 29.76 in 10.0 mi WNW 6.9 mph - N/A   Clear
10:55 PM 71.6 °F 30.2 °F 22% 29.76 in 10.0 mi WNW 6.9 mph - N/A   Clear
11:15 PM 73.4 °F 30.2 °F 20% 29.76 in 10.0 mi WNW 6.9 mph - N/A   Partly Cloudy
11:35 PM 73.4 °F 30.2 °F 20% 29.77 in 10.0 mi WNW 8.1 mph - N/A   Scattered Clouds
11:55 PM 73.4 °F 28.4 °F 19% 29.77 in 10.0 mi WNW 9.2 mph - N/A   Scattered Clouds